Location: ??
(35.5052°N, 139.7262°E)
Time: 02:18:19
(UTC+00:00)

CZ-2C R/B - Pass Details

Date: 20 June 2021
Orbit: 500 x 566 km, 97.7° (Epoch: 26 July)

Event Time Altitude Azimuth Distance (km) Brightness Sun altitude
Rises 18:04:53 0° 21° (NNE) 2,680 7.5 -14.1°
Reaches altitude 10° 18:07:08 10° 29° (NNE) 1,774 6.6 -13.8°
Maximum altitude 18:10:43 38° 98° (E) 806 4.0 -13.2°
Drops below altitude 10° 18:14:12 10° 168° (SSE) 1,727 5.1 -12.7°
Enters shadow 18:15:15 - 173° (S) 2,144 5.5 -12.6°
